{"data":{"norad_id":69040,"intl_designator":"2026-101R","name":"STARLINK-37616","alt_names":[],"object_type":"PAYLOAD","status":"ACTIVE","operator":null,"country":"US","launch_date":"2026-05-06","launch_site_code":"AFWTR","launch_vehicle":null,"mission":null,"orbit_class":"UNKNOWN","rcs_meters":null,"size_class":null,"mass_kg":null,"dimensions":null,"purposes":["comms"],"wikipedia_slug":null,"has_3d_model":false,"image_url":null,"decayed_at":null,"tle_current":{"epoch":"2026-09-20T00:45:14.510016Z","epoch_age_seconds":63763,"freshness":"FRESH","line1":"1 69040U 26101R   26263.03141794  .00014375  00000+0  44665-3 0  9994","line2":"2 69040  97.2845 116.4718 0002366  84.5393 275.6120 15.33450008 21109","mean_motion":15.33450008,"eccentricity":0.0002366,"inclination_deg":97.2845,"raan_deg":116.4718,"arg_perigee_deg":84.5393,"mean_anomaly_deg":275.612,"bstar":0.00044665,"rev_number":2110,"period_min":93.905897974341,"perigee_km":463.90906303023,"apogee_km":467.14748543799,"semimajor_km":6843.6652742341,"source":"CELESTRAK","updated_at":"2026-09-20T09:00:44.060970Z"}}}